Regional Weather Roundup
Issued by NWS Binghamton, NY

Home | Current Version | Previous Version | Text Only | Print | Product List | Glossary On
Versions: 1 2 3 4 5 6 7 8 9 10 11 12 13 14 15 16 17 18 19 20 21 22 23 24 25 26 27 28 29 30 31 32 33 34 35 36 37 38 39 40 41 42 43 44 45 46 47 48 49 50
000
ASUS41 KBGM 260410
RWRBGM

REGIONAL WEATHER ROUNDUP
NATIONAL WEATHER SERVICE BINGHAMTON NY
1200 AM EDT MON JUN 26 2017

Note: "fair" indicates few or no clouds below 12,000 feet with no
significant weather and/or obstructions to visibility.

* = Station(s) that does not report precipitation, such as rain,
snow, etc, also no thunder or fog.

NYZ009-015>018-022>025-036-037-044>046-055>057-062-260500
...Central New York...

CITY           SKY/WX    TMP DP  RH WIND       PRES   REMARKS
Binghamton     NOT AVBL
Cortland       FAIR      52  52 100 CALM      30.03R
Dansville      MOCLDY    56  50  80 S7        30.03S
Elmira         NOT AVBL
Seneca Falls   MOCLDY    61  54  77 SW5       30.00S
Ithaca         NOT AVBL
Hamilton       CLEAR     52  50  93 CALM      30.01S
Hornell        CLEAR     52  48  87 SE3       30.07S
Monticello     PTCLDY    57  50  77 W3        30.04F
Norwich        PTCLDY    54  52  94 CALM      30.03S
Penn Yan       PTCLDY    55  51  86 S3        30.01F
Rome           CLEAR     52  52 100 NE3       29.99S
Sidney         CLEAR    N/A N/A N/A CALM      30.03S
Syracuse       PTCLDY    57  53  86 SW6       29.97F
$$

PAZ038>040-043-044-047-048-072-260500
...Northeast Pennsylvania...

CITY           SKY/WX    TMP DP  RH WIND       PRES   REMARKS
Hazleton         N/A     61  46  59 N3        30.08S
Scranton       PTCLDY    60  52  74 CALM      30.03F
$$
&&
KEY
WCI = Wind Chill Index
VSB = Visibility
HX  = Heat Index
$$



USA.gov is the U.S. government's official web portal to all federal, state and local government web resources and services.